Flag for Germany Weather past 2 weeks in Weil am Rhein, Baden-Württemberg, Germany

Now
37 °F

Light rain. Overcast.


Feels Like: 31 °F
Forecast: 27 / 42 °F
Wind: 8 mph from West

Location: Bale-Mulhouse

Current Time: Feb 28, 2015 at 12:38:50 AM

Latest Report: Feb 27, 2015 at 11:00 PM


Visibility: 9 mi

Pressure: 30.22 "Hg

Humidity: 92%

Dew point: 35 °F

Location of Weil am RheinLocation

Historic Weather in Weil am Rhein — Graph

°F

Weil am Rhein temperature yesterday

Maximum temperature yesterday: 42 °F (at 12:00 PM)
Minimum temperature yesterday: 37 °F (at 11:00 PM)
Average temperature yesterday: 40 °F

Past Weeks' High & Low Weather Summary

 TemperatureHumidityPressure
High60 °F (Feb 20, 4:00 PM)98% (Feb 15, 9:00 AM)30.73 "Hg (Feb 15, 9:00 AM)
Low24 °F (Feb 13, 1:00 AM)19% (Feb 20, 5:00 PM)29.59 "Hg (Feb 21, 7:00 AM)
Average38 °F80%30.07 "Hg
* Reported Feb 12 11:00 PM — Feb 27 11:00 PM, Weil am Rhein, Weather by CustomWeather, © 2015

Note: Actual official high and low records may vary slightly from our data, if they occured in-between our weather recording intervals... More about our weather records

Advertising

Weil am Rhein weather history for previous 24 hours

 ConditionsComfort  
Time TempWeatherWind HumidityBarometerVisibility
11:00 PM
Fri, Feb 27
37 °FLight rain. Overcast.8 mph92%30.22 "Hg9 mi
9:00 PM38 °FLight rain. Overcast.12 mph90%30.19 "Hg12 mi
8:00 PM38 °FLight rain. Overcast.9 mph91%30.17 "Hg12 mi
7:00 PM39 °FLight rain. Overcast.8 mph91%30.15 "Hg7 mi
6:00 PM39 °FLight rain. Overcast.10 mph90%30.12 "Hg7 mi
5:00 PM40 °FLight rain. Overcast.13 mph88%30.08 "Hg6 mi
4:00 PM40 °FLight rain. Overcast.13 mph90%30.05 "Hg6 mi
3:00 PM41 °FLight rain. Overcast.9 mph92%30.02 "Hg5 mi
2:00 PM41 °FLight rain. Overcast.10 mph90%29.99 "Hg7 mi
1:00 PM42 °FLight rain. Overcast.12 mph89%29.96 "Hg7 mi
12:00 PM42 °FLight rain. Low clouds.14 mph90%29.92 "Hg4 mi
11:00 AM42 °FLight rain. Low clouds.8 mph94%29.89 "Hg3 mi
10:00 AM39 °FLight rain. Low clouds.7 mph96%29.87 "Hg2 mi
9:00 AM38 °FLight rain. Overcast.3 mph96%29.85 "Hg2 mi
8:00 AM38 °FLight rain. Overcast.3 mph94%29.84 "Hg3 mi
7:00 AM38 °FLight rain. Overcast.8 mph90%29.83 "Hg5 mi
6:00 AM38 °FLight rain. Overcast.8 mph87%29.83 "Hg6 mi
5:00 AM39 °FLight rain. Overcast.8 mph82%29.83 "Hg7 mi
2:00 AM41 °FOvercast.3 mph66%29.90 "Hg22 mi
1:00 AM42 °FOvercast.5 mph59%29.92 "Hg25 mi
12:00 AM42 °FOvercast.3 mph55%29.94 "Hg19 mi
Weather by CustomWeather, © 2015

See weather overviewHow to use our weather pages